TOURFACTS.DK  
Stats and Facts from Tour de France.

Tour de France 2018 starts in 349 days
  Riders   Stages   Teams   Summits   Yearly  


 
Search by year

 2017 - St. 18:  14824 starters.
  5131 different riders.
  634 teams.
  2229 stages.
  454 restdays.
  439241.60 km.
  5651 abandonnees.


Top 3
Christopher Froome89:04:48
Romain Bardet89:08:53
Nairo Quintana89:09:09
Rafal Majka209 pt.
Thomas De Gendt130 pt.
Jarlinson Pantano ..121 pt.
Peter Sagan470 pt.
Marcel Kittel228 pt.
Michael Matthews199 pt.
Adam Yates89:09:30
Louis Meintjes89:11:46
Emanuel Buchmann89:52:28
Facts from Tour de France 2016
  |   Stages.  |   Stage winners.  |   Days in yellow  |   Average speed.  |   Route.  |   Teams.  |   All riders.  |   Rookies.  |   Withdrawls.  |  

  |   GC.  |   Polka  |   Green  |   White  |   Summits. (In tour)  |   Summits. (Points)  |   Miscellaneous.  |  

Stage 16 on 18 - 07 - 2016
         Owning:    Christopher Froome      Rafal Majka      Peter Sagan      Adam Yates  

Pick a stage:  1 2 3 4 5 6 7 8 9 10 11 12 13 14 15 16 17 18 19 20 21
  Moirans-en-MontagneBern | Dist: 206.00 km.
Cat: 4Côte de MühlebergGERTony Martin1 points 

Average speed for all riders in stage:  45,962 km./hr.
    Place:Name:Team:Time:Km/h:
SVKPeter SaganRUSTinkoff04:26:02  +  00:00:00=46,460 
NORAlexander KristoffRUSTeam Katusha04:26:02  +  00:00:00=46,460 
NORSondre Holst EngerCHEIAM Cycling04:26:02  +  00:00:00=46,460 
4 GERJohn DegenkolbDEUTeam Giant Alpecin04:26:02  +  00:00:00=46,460 
5 AUSMichael MatthewsAUSORICA BikeExchange04:26:02  +  00:00:00=46,460 
6 SUIFabian CancellaraUSATrek – Segafredo04:26:02  +  00:00:00=46,460 
7 BELSep VanmarckeNLDTeam Lotto NL - Jumbo04:26:02  +  00:00:00=46,460 
8 BRAMaximilano RichezeBELEtixx - Quick Step04:26:02  +  00:00:00=46,460 
9 NOREdvald Boasson HagenZAFDimension Data04:26:02  +  00:00:00=46,460 
10 BELGreg Van AvermaetUSABMC Racing Team04:26:02  +  00:00:00=46,460 
11 ESPAlejandro ValverdeESPMovistar Team04:26:02  +  00:00:00=46,460 
12 AUTPatrick KonradDEUBora-Argon 1804:26:02  +  00:00:00=46,460 
13 FRARomain BardetFRAAg2r La Mondiale04:26:02  +  00:00:00=46,460 
14 KENChristopher FroomeGBRSky Procycling04:26:02  +  00:00:00=46,460 
15 RSALouis MeintjesITALampre-Merida04:26:02  +  00:00:00=46,460 
16 SUISébastien ReichenbachFRAFDJ04:26:02  +  00:00:00=46,460 
17 CZERoman KreuzigerRUSTinkoff04:26:02  +  00:00:00=46,460 
18 AUSRichie PorteUSABMC Racing Team04:26:02  +  00:00:00=46,460 
19 ENGAdam YatesAUSORICA BikeExchange04:26:02  +  00:00:00=46,460 
20 NEDBauke MollemaUSATrek – Segafredo04:26:02  +  00:00:00=46,460 
21 NEDWilco KeldermanNLDTeam Lotto NL - Jumbo04:26:02  +  00:00:00=46,460 
22 USATejay Van GarderenUSABMC Racing Team04:26:02  +  00:00:00=46,460 
23 IOMMark CavendishZAFDimension Data04:26:02  +  00:00:00=46,460 
24 NEDStef ClementCHEIAM Cycling04:26:02  +  00:00:00=46,460 
25 ESPJoaquim RodriguezRUSTeam Katusha04:26:02  +  00:00:00=46,460 
26 ITAFabio AruKAZAstana Pro Team04:26:02  +  00:00:00=46,460 
27 COLSergio Luis HenaoGBRSky Procycling04:26:02  +  00:00:00=46,460 
28 ENGDaniel MartinBELEtixx - Quick Step04:26:02  +  00:00:00=46,460 
29 COLNairo QuintanaESPMovistar Team04:26:02  +  00:00:00=46,460 
30 WALGeraint ThomasGBRSky Procycling04:26:02  +  00:00:00=46,460 
31 BELJulien VermoteBELEtixx - Quick Step04:26:02  +  00:00:00=46,460 
32 GERSimon GeschkeDEUTeam Giant Alpecin04:26:02  +  00:00:00=46,460 
33 FRASamuel DumoulinFRAAg2r La Mondiale04:26:02  +  00:00:00=46,460 
34 FRAWarren BarguilDEUTeam Giant Alpecin04:26:12  +  00:00:10=46,431 
36 ESPLuis Angel MateFRACofidis – Solutions Crédits04:26:23  +  00:00:21=46,399 
37 SLOBorut BozicFRACofidis – Solutions Crédits04:26:25  +  00:00:23=46,393 
38 URSRamunas NavardauskasUSATeam Cannondale Drapac04:26:35  +  00:00:33=46,364 
39 CZEPetr VakocBELEtixx - Quick Step04:26:40  +  00:00:38=46,350 
40 GEREmanuel BuchmannDEUBora-Argon 1804:26:41  +  00:00:39=46,347 
41 FRAAnthony RouxFRAFDJ04:26:41  +  00:00:39=46,347 
42 ESPImanol ErvitiESPMovistar Team04:26:41  +  00:00:39=46,347 
43 FRAArmindo FonsecaFRAFortuneo - Vital Concept04:26:41  +  00:00:39=46,347 
44 GERAndré GreipelBELLotto Soudal04:26:41  +  00:00:39=46,347 
45 SUIJakob FuglsangKAZAstana Pro Team04:26:41  +  00:00:39=46,347 
46 FRAMickaël CherelFRAAg2r La Mondiale04:26:41  +  00:00:39=46,347 
47 LUXFränk SchleckUSATrek – Segafredo04:26:41  +  00:00:39=46,347 
48 FRAPierre RollandUSATeam Cannondale Drapac04:26:41  +  00:00:39=46,347 
49 FRAAlexis VuillermozFRAAg2r La Mondiale04:26:41  +  00:00:39=46,347 
50 SLOJan PolancITALampre-Merida04:26:41  +  00:00:39=46,347 
51 AUSAdam HansenBELLotto Soudal04:26:41  +  00:00:39=46,347 
52 GERMarcus BurghardtUSABMC Racing Team04:26:41  +  00:00:39=46,347 
53 ITADamiano CarusoUSABMC Racing Team04:26:41  +  00:00:39=46,347 
54 ESPLuis León SánchezKAZAstana Pro Team04:26:41  +  00:00:39=46,347 
55 SUIReto HollensteinCHEIAM Cycling04:26:41  +  00:00:39=46,347 
56 ESPHaimar ZubeldiaUSATrek – Segafredo04:26:41  +  00:00:39=46,347 
57 BELJürgen RoelandtsBELLotto Soudal04:26:41  +  00:00:39=46,347 
58 SUIMichael SchärUSABMC Racing Team04:27:01  +  00:00:59=46,289 
59 GERPaul VossDEUBora-Argon 1804:27:01  +  00:00:59=46,289 
60 CZEJan BártaDEUBora-Argon 1804:27:01  +  00:00:59=46,289 
61 SUIMartin ElmigerCHEIAM Cycling04:27:01  +  00:00:59=46,289 
62 ITADiego RosaKAZAstana Pro Team04:27:01  +  00:00:59=46,289 
63 ITAVincenzo NibaliKAZAstana Pro Team04:27:01  +  00:00:59=46,289 
64 POLBartosz HuzarskiDEUBora-Argon 1804:27:01  +  00:00:59=46,289 
65 SUIGregory RastUSATrek – Segafredo04:27:01  +  00:00:59=46,289 
66 ITADomenico PozzovivoFRAAg2r La Mondiale04:27:01  +  00:00:59=46,289 
67 FRAArthur VichotFRAFDJ04:27:01  +  00:00:59=46,289 
68 BELJan BakelantsFRAAg2r La Mondiale04:27:01  +  00:00:59=46,289 
69 GERPaul MartensNLDTeam Lotto NL - Jumbo04:27:01  +  00:00:59=46,289 
70 HRVRobert KiserlovskiRUSTinkoff04:27:01  +  00:00:59=46,289 
71 AUTMarco HallerRUSTeam Katusha04:27:01  +  00:00:59=46,289 
72 ESPDaniel MorenoESPMovistar Team04:27:01  +  00:00:59=46,289 
73 RSAReinardt Janse Van RensburgZAFDimension Data04:27:01  +  00:00:59=46,289 
74 SLOKristjan KorenUSATeam Cannondale Drapac04:27:22  +  00:01:20=46,229 
75 ETHTsgabu Gebremaryan GrmayITALampre-Merida04:27:22  +  00:01:20=46,229 
76 NEDTimo RoosenNLDTeam Lotto NL - Jumbo04:27:22  +  00:01:20=46,229 
77 ITAPaolo TiralongoKAZAstana Pro Team04:27:22  +  00:01:20=46,229 
78 URSTanel KangertKAZAstana Pro Team04:27:22  +  00:01:20=46,229 
79 SUISteve MorabitoFRAFDJ04:27:22  +  00:01:20=46,229 
80 RSADaryl ImpeyAUSORICA BikeExchange04:27:22  +  00:01:20=46,229 
81 AUTGeorg PreidlerDEUTeam Giant Alpecin04:27:22  +  00:01:20=46,229 
82 NEDRoy CurversDEUTeam Giant Alpecin04:27:22  +  00:01:20=46,229 
83 NEDTom DumoulinDEUTeam Giant Alpecin04:27:22  +  00:01:20=46,229 
84 ESPMarkel IrizarUSATrek – Segafredo04:27:22  +  00:01:20=46,229 
85 RUSIlnur ZakarinRUSTeam Katusha04:27:22  +  00:01:20=46,229 
86 FRAAdrien PetitFRADirect Energie04:27:22  +  00:01:20=46,229 
87 SLOLuka PibernikITALampre-Merida04:27:22  +  00:01:20=46,229 
88 ESPGorka Izaguirre InsaustiESPMovistar Team04:27:22  +  00:01:20=46,229 
89 ESPJon Izaguirre InsaustiESPMovistar Team04:27:22  +  00:01:20=46,229 
90 FRABrice FeilluFRAFortuneo - Vital Concept04:27:22  +  00:01:20=46,229 
91 FRACyril GautierFRAAg2r La Mondiale04:27:22  +  00:01:20=46,229 
92 LUXBen GastauerFRAAg2r La Mondiale04:27:22  +  00:01:20=46,229 
93 ERIDaniel TeklehaimanotZAFDimension Data04:27:22  +  00:01:20=46,229 
94 BELJasper StuyvenUSATrek – Segafredo04:27:32  +  00:01:30=46,200 
95 NEDDylan GroenewegenNLDTeam Lotto NL - Jumbo04:28:00  +  00:01:58=46,119 
96 AUSMathew HaymanAUSORICA BikeExchange04:28:00  +  00:01:58=46,119 
97 ITAMatteo BonoITALampre-Merida04:28:10  +  00:02:08=46,091 
98 NEDDylan Van BaarleUSATeam Cannondale Drapac04:28:13  +  00:02:11=46,082 
99 BELMaarten WynantsNLDTeam Lotto NL - Jumbo04:28:29  +  00:02:27=46,036 
100 SUIMichael AlbasiniAUSORICA BikeExchange04:28:30  +  00:02:28=46,034 
101 NEDRamon SinkeldamDEUTeam Giant Alpecin04:28:32  +  00:02:30=46,028 
102 ENGIan StannardGBRSky Procycling04:28:45  +  00:02:43=45,991 
103 ITADavide CimolaiITALampre-Merida04:28:45  +  00:02:43=45,991 
104 KAZAlexey LutsenkoKAZAstana Pro Team04:28:48  +  00:02:46=45,982 
105 FRASylvain ChavanelFRADirect Energie04:28:56  +  00:02:54=45,959 
106 ESPMikel NieveGBRSky Procycling04:28:56  +  00:02:54=45,959 
107 ESPMikel Landa MeanaGBRSky Procycling04:28:56  +  00:02:54=45,959 
108 ITACesare BenedettiDEUBora-Argon 1804:28:56  +  00:02:54=45,959 
109 UKRAndriy GrivkoKAZAstana Pro Team04:28:56  +  00:02:54=45,959 
110 COLJarlinson Pantano GomezCHEIAM Cycling04:28:56  +  00:02:54=45,959 
111 COLWinner AnaconaESPMovistar Team04:28:56  +  00:02:54=45,959 
112 USAPeter StetinaUSATrek – Segafredo04:28:56  +  00:02:54=45,959 
113 DENChris Anker SørensenFRAFortuneo - Vital Concept04:28:56  +  00:02:54=45,959 
114 HRVKristijan DurasekITALampre-Merida04:28:56  +  00:02:54=45,959 
115 DENLars BakBELLotto Soudal04:28:56  +  00:02:54=45,959 
116 ITAFabio SabatiniBELEtixx - Quick Step04:28:56  +  00:02:54=45,959 
117 CANAntoine DuchesneFRADirect Energie04:28:56  +  00:02:54=45,959 
118 FRAWilliam BonnetFRAFDJ04:28:56  +  00:02:54=45,959 
119 PORRui CostaITALampre-Merida04:28:56  +  00:02:54=45,959 
120 JPNYukiya ArashiroITALampre-Merida04:28:56  +  00:02:54=45,959 
121 ESPDaniel NavarroFRACofidis – Solutions Crédits04:28:56  +  00:02:54=45,959 
122 BLRVasil KiryienkaGBRSky Procycling04:28:56  +  00:02:54=45,959 
123 FRAAnthony DelaplaceFRAFortuneo - Vital Concept04:28:56  +  00:02:54=45,959 
124 FRAFlorian VachonFRAFortuneo - Vital Concept04:28:56  +  00:02:54=45,959 
125 FRAJérôme CoppelCHEIAM Cycling04:28:56  +  00:02:54=45,959 
126 ESPRubén PlazaAUSORICA BikeExchange04:28:56  +  00:02:54=45,959 
127 FRAJérôme CousinFRACofidis – Solutions Crédits04:28:56  +  00:02:54=45,959 
128 FRAYohann GèneFRADirect Energie04:28:56  +  00:02:54=45,959 
129 PORNelson OliveiraESPMovistar Team04:28:56  +  00:02:54=45,959 
130 ARGEduardo SepulvedaFRAFortuneo - Vital Concept04:29:13  +  00:03:11=45,911 
131 BELSerge PauwelsZAFDimension Data04:29:14  +  00:03:12=45,908 
132 FRACyril LemoineFRACofidis – Solutions Crédits04:29:17  +  00:03:15=45,900 
133 WALLuke RoweGBRSky Procycling04:29:35  +  00:03:33=45,849 
134 NEDWout PoelsGBRSky Procycling04:29:35  +  00:03:33=45,849 
135 ITAOscar GattoRUSTinkoff04:29:46  +  00:03:44=45,817 
136 ESPAngel ViciosoRUSTeam Katusha04:29:46  +  00:03:44=45,817 
137 POLRafal MajkaRUSTinkoff04:29:55  +  00:03:53=45,792 
138 NEDLaurens ten DamDEUTeam Giant Alpecin04:30:02  +  00:04:00=45,772 
139 AUTBernhard EiselZAFDimension Data04:30:02  +  00:04:00=45,772 
140 GERRobert WagnerNLDTeam Lotto NL - Jumbo04:30:02  +  00:04:00=45,772 
141 NEDAlbert TimmerDEUTeam Giant Alpecin04:30:02  +  00:04:00=45,772 
142 NEDBert-Jan LindemanNLDTeam Lotto NL - Jumbo04:30:02  +  00:04:00=45,772 
143 ENGStephen CummingsZAFDimension Data04:30:20  +  00:04:18=45,721 
144 FRAAmaël MoinardUSABMC Racing Team04:30:20  +  00:04:18=45,721 
145 USABrent BookwalterUSABMC Racing Team04:30:20  +  00:04:18=45,721 
146 ITAJacopo GuarnieriRUSTeam Katusha04:30:20  +  00:04:18=45,721 
147 BELThomas De GendtBELLotto Soudal04:30:27  +  00:04:25=45,702 
148 GERMarcel SiebergBELLotto Soudal04:30:29  +  00:04:27=45,696 
149 FRABryan CoquardFRADirect Energie04:30:52  +  00:04:50=45,631 
150 FRAPierre-Luc PérichonFRAFortuneo - Vital Concept04:32:55  +  00:06:53=45,289 
151 IRLChristopher Juul JensenAUSORICA BikeExchange04:32:55  +  00:06:53=45,289 
152 AUSLuke DurbridgeAUSORICA BikeExchange04:32:55  +  00:06:53=45,289 
153 ERINatnael Teweldemedhin BerhaneZAFDimension Data04:32:55  +  00:06:53=45,289 
154 FRAGeoffrey SoupeFRACofidis – Solutions Crédits04:32:55  +  00:06:53=45,289 
155 NZLGeorge BennettNLDTeam Lotto NL - Jumbo04:33:13  +  00:07:11=45,239 
156 AUSRohan DennisUSABMC Racing Team04:33:13  +  00:07:11=45,239 
157 AUSLeigh HowardCHEIAM Cycling04:33:25  +  00:07:23=45,206 
158 NZLGregory HendersonBELLotto Soudal04:33:25  +  00:07:23=45,206 
159 GERAndreas SchillingerDEUBora-Argon 1804:33:25  +  00:07:23=45,206 
160 USAAlex HowesUSATeam Cannondale Drapac04:33:25  +  00:07:23=45,206 
161 NEDTom-Jelte SlagterUSATeam Cannondale Drapac04:33:25  +  00:07:23=45,206 
162 NORVegard BreenFRAFortuneo - Vital Concept04:33:25  +  00:07:23=45,206 
163 ENGDaniel McLayFRAFortuneo - Vital Concept04:33:25  +  00:07:23=45,206 
164 NZLShane ArchboldDEUBora-Argon 1804:33:25  +  00:07:23=45,206 
165 FRARomain SicardFRADirect Energie04:33:25  +  00:07:23=45,206 
166 FRANicolas EdetFRACofidis – Solutions Crédits04:34:19  +  00:08:17=45,057 
167 USALawson CraddockUSATeam Cannondale Drapac04:34:20  +  00:08:18=45,055 
168 FRAJérémy RoyFRAFDJ04:34:20  +  00:08:18=45,055 
169 FRAArnold JeannessonFRACofidis – Solutions Crédits04:34:20  +  00:08:18=45,055 
170 DENMichael ValgrenRUSTinkoff04:34:20  +  00:08:18=45,055 
171 ESPAlberto LosadaRUSTeam Katusha04:34:20  +  00:08:18=45,055 
172 FRAThomas VoecklerFRADirect Energie04:34:20  +  00:08:18=45,055 
173 POLMaciej BodnarRUSTinkoff04:34:20  +  00:08:18=45,055 
174 FRA Alexis GougeardFRAAg2r La Mondiale04:34:20  +  00:08:18=45,055 
175 ITAMatteo TosattoRUSTinkoff04:34:43  +  00:08:41=44,992 
176 BELIljo KeisseBELEtixx - Quick Step04:37:27  +  00:11:25=44,549 
178 FRATony GallopinBELLotto Soudal04:37:58  +  00:11:56=44,466 
179 BELSam BennettDEUBora-Argon 1804:37:58  +  00:11:56=44,466 
180 FRAFabrice JeandesbozFRADirect Energie04:37:58  +  00:11:56=44,466 
181 FRAChristophe LaporteFRACofidis – Solutions Crédits04:38:16  +  00:12:14=44,418 
182 GERTony MartinBELEtixx - Quick Step04:38:22  +  00:12:20=44,402 
183 FRAJulian AlaphilippeBELEtixx - Quick Step04:38:22  +  00:12:20=44,402 


Todays birthdays.

1889  Arthur Godart
1901  Félix Baud
1904  Fernand Fayolle
1921  Pietro Giudici
1932  Félix Le Buhotel
1932  Piet Van Den Brekel
1954  Hennie Stamsnijder
1965  Francis Moreau
1980  Andrey Kashechkin
1981  Stefan Schumacher